Location: Cheching
(60.0667°N, 164.2167°W)
Time: 21:17:48
(UTC+00:00)

LilacSat-2 - Pass Details

Date: 26 January 2021
Orbit: 512 x 534 km, 97.5° (Epoch: 07 March)

Event Time Altitude Azimuth Distance (km) Brightness Sun altitude
Rises 05:01:42 0° 211° (SSW) 2,644 ? -15.1°
Reaches altitude 10° 05:04:28 10° 234° (SW) 1,766 ? -15.5°
Maximum altitude 05:06:52 16° 273° (W) 1,433 ? -15.8°
Drops below altitude 10° 05:09:19 10° 313° (NW) 1,784 ? -16.1°
Sets 05:12:08 0° 335° (NNW) 2,685 ? -16.4°
